ROMMA est une association bénévole à but non lucratif. Votre soutien est indispensable : ADHERER à ROMMA ou FAIRE un DON

Challes-les-Eaux - (73, Savoie)

Trouée des Marches (325 m)   Longitude: 05° 58' E   Latitude: 45° 32' N Station romma n°148
 

Détail journalier du     <<     >>

Température Precipitation Humidité Pression Vent Dir Rafale Dir. rafale
Heure (°C) (mm) (%) (hPa) (km/h) (km/h)
01:00 13.809310131ESE10ESE
02:00 13.709310122SE8SE
03:00 13.509310123ESE11ESE
04:00 13.709110122ESE13SE
05:00 13.80.29110124ESE18ESE
06:00 13.419310123ESE13ESE
07:00 13.349410122SE8ENE
08:00 13.23.69510121E11ESE
09:00 13.20.29510123ESE10ESE
10:00 13.409410111ESE6SSO
11:00 15.109010112SE6SE
12:00 17.208310103ESE15ENE
13:00 17.907910093SSE10S
14:00 18.007710081ESE8SE
15:00 17.708210081ENE8ENE
16:00 17.408410072E13ONO
17:00 16.608610084N15NNO
18:00 16.108810084N13NNO
19:00 15.609010083N13NNE
20:00 15.309110094N13N
21:00 14.909110092N10O
22:00 14.409310081NNE5N
23:00 13.9094100903NE
minuit 13.809410082NE8SE

Graphique du 19-10-2019

 

Serveur OMMA